www.pogodaiklimat.ru

Погода и климат >> Архив погоды >> Барбадос >> Грантли Адамс


ПОГОДА в Грантли Адамсе

  • Прогноз погоды в Грантли Адамсе
  • Монитор погоды в Грантли Адамсе

АРХИВ ПОГОДЫ в Грантли Адамсе

Время (UTC), дата Ветер
(напр.,м/с)
 
Видим.   Явления Облачность Т
(С)
Тd
(С)
f
(%)
Тe
(С)
Тes
(С)
Комфортность P
(гПа)
Po
(гПа)
Тmin
(С)
Tmax
(С)
R
(мм)
R24
(мм)
S
(см)
18 15.03 В 4 40 км ясно +28.7 +22.1 68 +37 +49 очень
душно
1014.2 1006.5 +24.5 +29.4
21 15.03 В 4 35 км ясно +26.5 +20.4 69 +33 +34 очень
душно
1013.9 1006.2
00 16.03 В 4 30 км ясно +25.2 +21.7 81 +32 +32 очень
душно
1015.0 1007.2 +29.4
06 16.03 СВ 3 30 км {ливн. осадки} ясно +24.7 +21.2 81 +31 +31 очень
душно
1013.8 1006.0 +24.5 +29.4
12 16.03 СВ 4 30 км осадки на расстоянии ясно +26.1 +21.4 75 +33 +37 очень
душно
1015.7 1008.0 +24.2 +29.4
15 16.03 В 6 26 км осадки на расстоянии ясно +29.1 +21.5 64 +37 +46 очень
душно
1016.1 1008.4
18 16.03 В 5 22 км осадки на расстоянии {ливн. осадки} ясно +27.6 +22.2 72 +36 +45 очень
душно
1013.9 1006.2 +24.2 +29.1
00 17.03 В 4 20 км {ливн. осадки} ясно +25.6 +21.7 79 +33 +33 очень
душно
1014.5 1006.8 +28.9
06 17.03 В 3 18 км пыль ясно +24.7 +19.5 73 +30 +30 очень
душно
1013.5 1005.7 +24.2 +28.9
09 17.03 В 4 18 км пыль ясно +25.1 +20.0 73 +31 +31 очень
душно
1013.8 1006.0
12 17.03 В 4 16 км пыль {ливн. осадки} ясно +26.5 +21.1 72 +33 +37 очень
душно
1016.4 1008.7 +24.9 +28.9
15 17.03 В 5 6000 м осадки на расстоянии ясно +28.1 +21.9 69 +36 +48 очень
душно
1016.6 1008.9
18 17.03 В 4 6000 м {дождь} ясно +29.0 +21.6 64 +37 +47 очень
душно
1013.9 1006.2 +24.9 +29.1
00 18.03 В 4 22 км осадки на расстоянии {ливн. осадки} ясно +24.7 +21.2 81 +31 +31 очень
душно
1015.3 1007.5 +29.4
03 18.03 В 3 22 км ясно +24.9 +20.7 78 +31 +31 очень
душно
1016.0 1008.2
06 18.03 В 4 22 км ясно +24.6 +19.9 75 +30 +30 очень
душно
1014.9 1006.2 +22.5 +29.4
09 18.03 В 4 22 км ясно +24.7 +20.2 76 +30 +30 очень
душно
1013.5 1005.7
12 18.03 В 4 10 км осадки на расстоянии ясно +26.6 +21.1 72 +34 +37 очень
душно
1015.8 1008.1 +24.6 +29.4
15 18.03 В 4 10 км осадки на расстоянии ясно +26.7 +19.5 65 +32 +45 очень
душно
1017.1 1009.3
18 18.03 В 4 16 км пыль ясно +29.4 +19.1 54 +35 +45 очень
душно
1014.5 1006.8 +24.6 +29.4
21 18.03 В 4 18 км пыль ясно +26.9 +18.9 62 +32 +33 очень
душно
1013.6 1005.9
00 19.03 В 4 18 км пыль ясно +25.2 +20.6 76 +31 +31 очень
душно
1015.2 1007.4 +29.5
03 19.03 В 4 18 км пыль ясно +24.7 +18.2 67 +29 +29 душно 1016.3 1008.5
06 19.03 В 3 18 км пыль ясно +24.1 +18.7 72 +29 +29 душно 1013.9 1006.1 +24.1 +29.5
09 19.03 В 3 18 км пыль ясно +24.2 +18.6 71 +29 +29 душно 1013.9 1006.1
12 19.03 В 3 20 км ясно +26.5 +20.0 68 +33 +37 очень
душно
1016.2 1008.5 +24.2 +29.5
18 19.03 В 4 20 км ясно +29.2 +21.1 62 +37 +48 очень
душно
1014.4 1006.7 +24.2 +29.7
21 19.03 В 4 24 км ясно +26.9 +18.1 59 +32 +33 очень
душно
1013.5 1005.8
00 20.03 В 4 24 км ясно +25.5 +19.9 71 +31 +31 очень
душно
1014.8 1007.1 +29.7
03 20.03 В 4 24 км ясно +25.1 +19.7 72 +31 +31 очень
душно
1015.5 1007.7
06 20.03 В 4 26 км ясно +24.6 +18.5 69 +29 +29 душно 1013.5 1005.7 +24.2 +29.7
09 20.03 В 4 26 км ясно +24.6 +18.7 70 +29 +29 душно 1013.4 1005.6
15 20.03 В 4 26 км ясно +28.6 +19.5 58 +34 +48 очень
душно
1015.8 1008.1
18 20.03 В 4 26 км ясно +28.6 +20.2 60 +35 +45 очень
душно
1014.1 1006.4 +24.4 +29.7
03 21.03 В 4 30 км ясно +24.5 +17.1 63 +28 +28 душно 1015.1 1007.3
06 21.03 В 3 30 км ясно +24.4 +19.0 72 +29 +29 душно 1013.4 1005.6 +24.2 +29.7
09 21.03 В 2 30 км ясно +23.7 +18.5 73 +28 +28 душно 1013.3 1005.5
12 21.03 В 3 30 км ясно +26.4 +20.4 70 +33 +38 очень
душно
1015.0 1007.3 +23.7 +29.7
15 21.03 В 3 24 км {ливн. осадки} ясно +28.0 +19.7 61 +34 +52 опасность
солнечного
удара
1015.7 1008.0
18 21.03 В 3 30 км {ливн. осадки} ясно +28.4 +22.2 69 +37 +50 очень
душно
1013.7 1006.0 +23.7 +28.9
12 22.03 В 4 14 км слаб. ливневой дождь ясно +24.9 +21.9 83 +32 +36 очень
душно
1016.0 1008.2 +22.6 +28.9
15 22.03 В 5 7000 м слаб. ливневой дождь ясно +26.2 +22.0 78 +34 +46 очень
душно
1016.6 1008.9

 

Местоположение метеостанции Грантли Адамс (Барбадос): широта 13.07 долгота -59.48 высота над уровнем моря 56 м.

В архиве по умолчанию представлена погода в Грантли Адамсе за последнюю неделю. Архивные данные за месяц целиком и за предыдущие месяцы, начиная с января 2011 года, Вы можете получить, выбрав интересующий диапазон дат из раскрывающегося списка и нажав кнопку "Ввод!".


*Определитесь, кто Вы:
робот инопланетянин человек

Внимание! Время в таблицах - всемирное. Для получения местного времени необходимо прибавить поправку, которая равна -4 ч.

Смотрите также архив погоды в соседних городах и на ближайших метеорологических станциях:

Погода в Аэропорту Хеванорра (Сент-Люсия) (175 км)
Погода в Арнос Вейл (Сент-Винсент и Гренадины) (186 км)
Погода в Виги (Сент-Люсия) (195 км)
Погода в Аэропорту Мартиники (Мартиника) (236 км)
Погода на Каравелле (Мартиника) (242 км)
Погода в Краун-Пойнте (Тринидад и Тобаго) (259 км)
Погода в Аэропорту Морис Бишоп (Гренада) (277 км)
Погода в Дуглас-Шарль аэропорту (Доминика) (337 км)
Погода в Аэропорту Пиарко (Тринидад и Тобаго) (339 км)
Погода в Канфилд аэропорту (Доминика) (343 км)

Пояснения к столбцам:

Ветер - указаны скорость ветра в м/с - средняя за 10 мин, порывы в срок и между сроками (в фигурных скобках) и направление, откуда дует ветер: С - северный, СВ - северо-восточный, В - восточный, ЮВ - юго-восточный, Ю - южный, ЮЗ - юго-западный, З - западный, СЗ - северо-западный.
Видимость - горизонтальная дальность видимости в метрах или километрах. При видимости от 1 до 10 км при отсутствии осадков обычно наблюдается дымка, при ухудшении видимости до 1 км и менее - туман. В сухую погоду видимость может ухудшаться дымом, пылью или мглою.
Явления - указаны атмосферные явления, наблюдавшиеся в срок или в последний час перед сроком; фигурными скобками обозначены явления, наблюдавшиеся между сроками (за 1-3 часа до срока); квадратными скобками обозначены град или гололедные отложения с указанием их диаметра в мм.
Облачность - указаны через наклонную черту общая и нижняя облачность в баллах и высота нижней границы облаков в метрах; квадратными скобками обозначены формы облаков: Ci - перистые, Cs - перисто-слоистые, Cc - перисто-кучевые, Ac - высококучевые, As - высокослоистые, Sc - слоисто-кучевые, Ns - слоисто-дождевые, Cu - кучевые, Cb - кучево-дождевые. Подробнее классификацию облаков см. в Атласе облаков (PDF).
T - Температура воздуха - температура, измеренная на высоте 2 м над землей.
Td - Температура точки росы - температура, при понижении до которой содержащийся в воздухе водяной пар достигнет насыщения.
f - Относительная влажность воздуха - влажноcть воздуха, измеренная на высоте 2 м над землей.
Te - Эффективная температура - температура, которую ощущает одетый по сезону человек в тени. Характеристика душности погоды. При расчете учитывается влияние влажности воздуха и скорости ветра на теплоощущения человека.
Tes - Эффективная температура на солнце - температура, которую ощущает человек, с поправкой на солнечный нагрев. Характеристика знойности погоды. Зависит от высоты солнца над горизонтом, облачности и скорости ветра. Ночью, в пасмурную погоду, а также при ветре 12 м/с и более поправка равна нулю.
P - Атмосферное давление - приведенное к уровню моря атмосферное давление.
Po - Атмосферное давление - измеренное на уровне метеостанции атмосферное давление.
Tmin - Минимальная температура - минимум температуры воздуха на высоте 2 м над землей.
Tmax - Максимальная температура - максимум температуры воздуха на высоте 2 м над землей.
R - Количество осадков - Количество выпавших осадков за период времени, мм. При наведении курсора мыши на число - период времени, за который выпало указанное количество осадков.
R24 - Количество осадков - Количество выпавших осадков за 24 часа, мм.
S - Снежный покров - Высота снежного покрова, см. При наведении курсора мыши на число - состояние снежного покрова и степень покрытия местности в баллах.